Location: Palmerston North
(40.3500°S, 175.6170°E)
Time: 04:45:47
(UTC+13:00)

NOAA 11 - Pass Details

Date: 24 January 2019
Orbit: 832 x 850 km, 98.5° (Epoch: 17 February)

Event Time Altitude Azimuth Distance (km) Brightness Sun altitude
Rises 21:29:23 0° 164° (SSE) 3,449 7.6 -8.4°
Reaches altitude 10° 21:31:49 10° 160° (SSE) 2,508 6.9 -8.8°
Maximum altitude 21:37:20 61° 79° (E) 974 4.3 -9.6°
Drops below altitude 10° 21:42:47 10° 359° (N) 2,479 6.3 -10.5°
Sets 21:45:10 0° 355° (N) 3,406 7.0 -10.8°
